Date String (YYYY-MM-DD hh:mm:ss) UTC,Instrument flags,Ambient pressure (hPa),Sample flow (lpm),Bypass flow (lpm),Sample temperature (°C),Ambient temperature (°C),ASC tube jacket temperature (°C),LED temperature (°C),Box temperature (°C),Sample RH (%),Span deviation,Mass concentration (μg/m³),Mass concentration (μg/m³),Mass concentration (μg/m³)
DateTimeUTC,F1_M11,P_M11,Q1_M11,Q2_M11,T1_M11,T2_M11,T3_M11,T4_M11,T5_M11,U1_M11,ZSPAN_M11,X0_M11,X2_M11,X1_M11
2022-11-19 02:00:00,,0829.0,4.99,0.00,22.3,20.8,00.0,31.3,24.0,08.1,0000.7,0015.22,0010.09,0009.45
2022-11-19 02:01:00,,0828.9,5.01,0.00,22.2,20.6,00.0,31.3,23.9,08.2,0001.6,0015.22,0010.07,0009.46
2022-11-19 02:02:00,,0828.9,5.01,0.00,22.2,20.5,00.0,31.3,23.9,08.2,0001.9,0014.89,0010.08,0009.45
2022-11-19 02:03:00,,0828.9,4.99,0.00,22.1,20.4,00.0,31.2,23.8,08.3,0001.7,0014.63,0010.08,0009.45
2022-11-19 02:04:00,,0828.9,4.99,0.00,22.1,20.4,00.0,31.2,23.7,08.3,0001.9,0014.31,0010.06,0009.43
2022-11-19 02:05:00,,0828.9,5.02,0.00,22.1,20.7,00.0,31.2,23.8,08.3,0001.5,0014.21,0010.03,0009.43
2022-11-19 02:06:00,,0828.8,4.99,0.00,22.2,21.6,00.0,31.1,24.0,08.3,0002.8,0014.21,0010.04,0009.42
2022-11-19 02:07:00,,0828.8,4.99,0.00,22.3,22.3,00.0,31.1,24.2,08.2,0003.4,0014.10,0009.98,0009.39
2022-11-19 02:08:00,,0828.9,5.02,0.00,22.3,22.2,00.0,31.1,24.3,08.2,0003.4,0014.02,0009.92,0009.36
2022-11-19 02:09:00,,0829.1,4.99,0.00,22.3,21.8,00.0,31.2,24.2,08.2,0003.2,0014.01,0009.90,0009.32
2022-11-19 02:10:00,,0829.3,5.00,0.00,22.3,21.5,00.0,31.2,24.1,08.2,0003.4,0014.00,0009.89,0009.30
2022-11-19 02:11:00,,0829.3,5.02,0.00,22.2,21.2,00.0,31.2,24.0,08.2,0003.1,0014.07,0009.92,0009.34
2022-11-19 02:12:00,,0829.3,4.99,0.00,22.2,21.0,00.0,31.2,23.9,08.2,0000.1,0013.82,0009.94,0009.36
2022-11-19 02:13:00,,0829.3,4.99,0.00,22.2,20.7,00.0,31.2,23.9,08.2,0000.0,0013.42,0009.93,0009.36
2022-11-19 02:14:00,,0829.3,5.01,0.00,22.1,20.6,00.0,31.2,23.8,08.2,0000.0,0013.45,0009.98,0009.38
2022-11-19 02:15:00,,0829.0,5.02,0.00,22.1,20.4,00.0,31.2,23.7,08.3,0000.0,0013.60,0010.05,0009.42
2022-11-19 02:16:00,,0828.9,5.00,0.00,22.0,20.6,00.0,31.1,23.7,08.3,0000.3,0013.69,0010.08,0009.46
2022-11-19 02:17:00,,0828.7,5.01,0.00,22.1,21.4,00.0,31.1,23.9,08.3,0000.0,0014.09,0010.11,0009.48
2022-11-19 02:18:00,,0828.7,4.99,0.00,22.2,22.2,00.0,31.0,24.1,08.3,0000.0,0014.09,0010.13,0009.52
2022-11-19 02:19:00,,0829.1,4.99,0.00,22.3,22.2,00.0,31.1,24.2,08.3,0000.0,0014.14,0010.18,0009.54
2022-11-19 02:20:00,,0829.3,5.01,0.00,22.3,21.7,00.0,31.1,24.2,08.3,0000.0,0014.10,0010.19,0009.56
2022-11-19 02:21:00,,0829.2,5.00,0.00,22.3,21.3,00.0,31.2,24.1,08.4,0000.0,0014.03,0010.19,0009.58
2022-11-19 02:22:00,,0828.9,5.01,0.00,22.2,21.1,00.0,31.2,24.0,08.4,0000.0,0013.95,0010.19,0009.57
2022-11-19 02:23:00,,0828.8,5.00,0.00,22.2,20.9,00.0,31.2,23.9,08.4,0000.0,0013.95,0010.20,0009.58
2022-11-19 02:24:00,,0829.1,5.00,0.00,22.1,20.7,00.0,31.2,23.8,08.4,0000.0,0014.00,0010.23,0009.60
2022-11-19 02:25:00,,0829.2,5.00,0.00,22.1,20.6,00.0,31.2,23.8,08.4,0000.0,0014.06,0010.25,0009.62
2022-11-19 02:26:00,,0829.2,4.99,0.00,22.1,20.4,00.0,31.1,23.7,08.5,0000.0,0014.06,0010.25,0009.64
2022-11-19 02:27:00,,0829.2,5.00,0.00,22.0,20.3,00.0,31.1,23.7,08.5,0000.0,0014.05,0010.26,0009.63
2022-11-19 02:28:00,,0829.2,5.02,0.00,22.0,20.7,00.0,31.0,23.8,08.5,0000.0,0013.66,0010.27,0009.64
2022-11-19 02:29:00,,0829.1,5.00,0.00,22.1,21.6,00.0,31.0,24.0,08.5,0000.0,0013.80,0010.31,0009.64
2022-11-19 02:30:00,,0828.8,4.99,0.00,22.2,22.3,00.0,31.0,24.2,08.4,0000.0,0014.20,0010.32,0009.66
2022-11-19 02:31:00,,0828.7,4.99,0.00,22.3,22.1,00.0,31.1,24.2,08.4,0000.0,0014.52,0010.32,0009.66
2022-11-19 02:32:00,,0829.0,5.00,0.00,22.3,21.7,00.0,31.1,24.2,08.4,0000.0,0014.60,0010.35,0009.67
2022-11-19 02:33:00,,0829.2,5.00,0.00,22.2,21.4,00.0,31.1,24.1,08.4,0000.0,0014.60,0010.37,0009.70
2022-11-19 02:34:00,,0828.8,4.99,0.00,22.2,21.1,00.0,31.1,24.0,08.4,0001.8,0014.50,0010.36,0009.71
2022-11-19 02:35:00,,0828.8,5.00,0.00,22.2,20.9,00.0,31.1,24.0,08.4,0002.7,0014.60,0010.39,0009.73
2022-11-19 02:36:00,,0828.9,5.00,0.00,22.2,20.7,00.0,31.1,24.0,08.4,0003.4,0014.56,0010.38,0009.75
2022-11-19 02:37:00,,0828.9,5.00,0.00,22.1,20.6,00.0,31.1,23.9,08.4,0002.7,0014.47,0010.34,0009.73
2022-11-19 02:38:00,,0828.9,5.02,0.00,22.1,20.6,00.0,31.1,23.9,08.4,0002.5,0015.16,0010.33,0009.74
2022-11-19 02:39:00,,0828.8,5.00,0.00,22.1,20.5,00.0,31.1,23.9,08.4,0003.0,0015.76,0010.32,0009.76
2022-11-19 02:40:00,,0828.8,5.00,0.00,22.1,20.5,00.0,31.1,23.9,08.4,0003.1,0015.91,0010.30,0009.77
2022-11-19 02:41:00,,0828.8,5.01,0.00,22.1,21.1,00.0,31.1,24.0,08.4,0002.3,0015.79,0010.30,0009.77
2022-11-19 02:42:00,,0828.9,4.99,0.00,22.2,22.0,00.0,31.0,24.1,08.3,0000.8,0015.26,0010.32,0009.79
2022-11-19 02:43:00,,0828.9,4.99,0.00,22.3,22.1,00.0,31.1,24.2,08.3,0000.3,0015.65,0010.33,0009.81
2022-11-19 02:44:00,,0828.9,5.01,0.00,22.3,21.8,00.0,31.1,24.2,08.3,0000.0,0015.93,0010.31,0009.81
2022-11-19 02:45:00,,0829.0,4.99,0.00,22.3,21.5,00.0,31.1,24.1,08.3,0000.0,0015.98,0010.34,0009.83
2022-11-19 02:46:00,,0829.0,5.01,0.00,22.2,21.2,00.0,31.2,24.1,08.3,0000.0,0016.11,0010.33,0009.83
2022-11-19 02:47:00,,0829.0,5.01,0.00,22.2,21.0,00.0,31.2,24.1,08.3,0000.0,0016.06,0010.34,0009.85
2022-11-19 02:48:00,,0829.0,4.98,0.00,22.2,20.9,00.0,31.2,24.1,08.3,0000.0,0016.05,0010.36,0009.87
2022-11-19 02:49:00,,0829.1,5.02,0.00,22.2,20.8,00.0,31.2,24.0,08.3,0000.0,0015.43,0010.39,0009.89
2022-11-19 02:50:00,,0829.1,5.00,0.00,22.2,20.7,00.0,31.1,24.0,08.3,0000.0,0015.45,0010.41,0009.90
2022-11-19 02:51:00,,0829.1,5.00,0.00,22.1,20.6,00.0,31.1,23.9,08.3,0000.0,0015.34,0010.45,0009.92
2022-11-19 02:52:00,,0829.1,5.00,0.00,22.1,20.6,00.0,31.1,23.8,08.2,0000.0,0015.38,0010.48,0009.93
2022-11-19 02:53:00,,0829.1,5.01,0.00,22.1,21.2,00.0,31.1,24.0,08.2,0000.0,0015.37,0010.49,0009.94
2022-11-19 02:54:00,,0829.1,5.02,0.00,22.2,22.0,00.0,31.0,24.1,08.1,0000.0,0014.93,0010.48,0009.94
2022-11-19 02:55:00,,0829.1,4.99,0.00,22.3,21.9,00.0,31.1,24.2,08.1,0001.6,0014.73,0010.51,0009.97
2022-11-19 02:56:00,,0829.0,4.99,0.00,22.3,21.5,00.0,31.1,24.1,08.2,0002.1,0014.83,0010.53,0009.99
2022-11-19 02:57:00,,0829.1,5.00,0.00,22.2,21.2,00.0,31.1,24.0,08.1,0000.0,0014.73,0010.55,0009.99
2022-11-19 02:58:00,,0829.2,5.01,0.00,22.2,21.0,00.0,31.1,23.9,08.1,0000.5,0014.70,0010.52,0009.94
2022-11-19 02:59:00,,0829.2,5.00,0.00,22.1,20.8,00.0,31.1,23.8,08.1,0000.0,0014.61,0010.46,0009.89
